{"data":{"norad_id":60115,"intl_designator":"2024-118C","name":"STARLINK-11112 [DTC]","alt_names":[],"object_type":"PAYLOAD","status":"ACTIVE","operator":null,"country":"US","launch_date":"2024-06-24","launch_site_code":"AFWTR","launch_vehicle":null,"mission":null,"orbit_class":"UNKNOWN","rcs_meters":null,"size_class":null,"mass_kg":null,"dimensions":null,"purposes":["comms"],"wikipedia_slug":null,"has_3d_model":false,"image_url":null,"decayed_at":null,"tle_current":{"epoch":"2026-09-21T11:49:07.500288Z","epoch_age_seconds":95824,"freshness":"FRESH","line1":"1 60115U 24118C   26264.49244792  .00000224  00000+0  66987-5 0  9998","line2":"2 60115  53.1570 336.2246 0000495 147.0099 213.0950 15.69707062128745","mean_motion":15.69707062,"eccentricity":4.95e-5,"inclination_deg":53.157,"raan_deg":336.2246,"arg_perigee_deg":147.0099,"mean_anomaly_deg":213.095,"bstar":6.6987e-6,"rev_number":12874,"period_min":91.736861919017,"perigee_km":359.40163319247,"apogee_km":360.0686825361,"semimajor_km":6737.8721578643,"source":"CELESTRAK","updated_at":"2026-09-22T09:00:49.154871Z"}}}